Pierre, SD

3:45 AM CST on November 22, 2019 (GMT -0600)
Pierre Regional

Weather History for KPIR - June, 2019

Change the Weather History Date:

Monday, June 10, 2019

  Actual Average Record
Temperature  
Mean Temperature 61 °F 66 °F  
Max Temperature 78 °F 78 °F 105 °F (1976)
Min Temperature 43 °F 54 °F 42 °F (1964)
Degree Days  
Heating Degree Days 4    
Month to date heating degree days 21  
Since 1 June heating degree days 21  
Since 1 July heating degree days 8147  
Cooling Degree Days 0    
Month to date cooling degree days 39  
Year to date cooling degree days 50  
Since 1 June cooling degree days 39  
Growing Degree Days 10 (Base 50)    
Moisture  
Dew Point 42 °F    
Average Humidity 54    
Maximum Humidity 83    
Minimum Humidity 25    
Precipitation  
Precipitation T in 0.13 in 2.45 in (1954)
Month to date precipitation 0.01 1.32  
Year to date precipitation 13.86 8.52  
Snow  
Snow 0.00 in 0.00 in 0.00 in ()
Month to date snowfall 0.0 0.0  
Since 1 July snowfall 66.3 31.9  
Snow Depth 0.00 in    
Sea Level Pressure  
Sea Level Pressure 30.21 in    
Wind  
Wind Speed 7 mph (SW)    
Max Wind Speed 15 mph    
Max Gust Speed 23 mph    
Visibility 10 miles    
Events      
T = Trace of Precipitation, MM = Missing Value Source: NWS Daily Summary

Daily Weather History Graph

Daily Weather History Graph

Search for Another Location

Airport or City:

Astronomy

Jun. 10, 2019 Rise Set
Actual Time 5:56 AM CDT 9:24 PM CDT
Civil Twilight 5:20 AM CDT 10:01 PM CDT
Nautical Twilight 4:32 AM CDT 10:49 PM CDT
Astronomical Twilight 3:31 AM CDT 11:50 PM CDT
Moon 1:59 PM CDT (6/10) 2:29 AM CDT (6/10)
Length of Visible Light 16h 40m
Length of Day
15h 27m
First Quarter, 55% of the Moon is Illuminated
Jun 10
First Quarter
Jun 17
Full
Jun 25
Last Quarter
Jul 2
New
Jul 9
First Quarter

Hourly Weather History & Observations

Time (CDT) Temp. Dew Point Humidity Pressure Visibility Wind Dir Wind Speed Gust Speed Precip Events Conditions
12:53 AM 51.1 °F 42.1 °F 71% 30.30 in 10.0 mi West 6.9 mph - N/A   Clear
1:53 AM 51.1 °F 41.0 °F 68% 30.30 in 10.0 mi WSW 8.1 mph - N/A   Clear
2:53 AM 48.9 °F 42.1 °F 77% 30.30 in 10.0 mi WSW 9.2 mph - N/A   Clear
3:53 AM 48.0 °F 41.0 °F 77% 30.30 in 10.0 mi WSW 8.1 mph - N/A   Clear
4:53 AM 46.9 °F 41.0 °F 80% 30.31 in 10.0 mi WSW 8.1 mph - N/A   Clear
5:53 AM 45.0 °F 39.0 °F 80% 30.30 in 10.0 mi Calm Calm - N/A   Clear
6:53 AM 48.0 °F 41.0 °F 77% 30.31 in 10.0 mi WSW 9.2 mph - N/A   Clear
7:53 AM 52.0 °F 42.1 °F 69% 30.31 in 10.0 mi West 6.9 mph - N/A   Clear
8:53 AM 57.9 °F 43.0 °F 58% 30.30 in 10.0 mi WSW 11.5 mph - N/A   Clear
9:53 AM 63.0 °F 46.0 °F 54% 30.29 in 10.0 mi WSW 13.8 mph - N/A   Clear
10:53 AM 66.9 °F 46.9 °F 49% 30.27 in 10.0 mi West 9.2 mph - N/A   Mostly Cloudy
11:53 AM 72.0 °F 46.0 °F 40% 30.25 in 10.0 mi SW 5.8 mph - N/A   Clear
12:53 PM 75.0 °F 37.9 °F 26% 30.23 in 10.0 mi SW 9.2 mph 20.7 mph N/A   Partly Cloudy
1:53 PM 72.0 °F 37.9 °F 29% 30.21 in 10.0 mi NW 5.8 mph 16.1 mph N/A   Overcast
2:53 PM 73.0 °F 41.0 °F 31% 30.19 in 10.0 mi SW 6.9 mph - N/A   Mostly Cloudy
3:53 PM 73.9 °F 39.0 °F 28% 30.17 in 10.0 mi WSW 5.8 mph - N/A   Scattered Clouds
4:53 PM 73.9 °F 43.0 °F 33% 30.14 in 10.0 mi West 3.5 mph - N/A   Clear
5:53 PM 75.0 °F 42.1 °F 31% 30.11 in 10.0 mi South 5.8 mph - N/A   Clear
6:53 PM 75.0 °F 44.1 °F 33% 30.08 in 10.0 mi Variable 3.5 mph - N/A   Clear
7:53 PM 70.0 °F 52.0 °F 53% 30.07 in 10.0 mi ENE 4.6 mph - N/A   Mostly Cloudy
8:53 PM 66.9 °F 46.9 °F 49% 30.08 in 10.0 mi South 12.7 mph 18.4 mph N/A   Overcast
9:53 PM 70.0 °F 37.0 °F 30% 30.09 in 10.0 mi South 9.2 mph - N/A   Overcast
10:53 PM 64.9 °F 44.1 °F 47% 30.09 in 10.0 mi SE 4.6 mph - 0.00 in   Overcast
11:53 PM 61.0 °F 43.0 °F 52% 30.07 in 10.0 mi ESE 4.6 mph - N/A   Mostly Cloudy